Flag for Germany Weather past 2 weeks in Peine, Lower Saxony, Germany

Now
30 °F

Chilly.


Feels Like: 30 °F
Forecast: 27 / 33 °F
Wind: No wind

Location: Celle Airport

Current Time: Dec 26, 2014 at 9:54:34 PM

Latest Report: Dec 26, 2014 at 9:20 PM


Visibility: 3 mi

Pressure: 30.21 "Hg

Humidity: 93%

Dew point: 28 °F

Location of PeineLocation

Historic Weather in Peine — Graph

°F

Peine temperature yesterday

Maximum temperature yesterday: 43 °F (at 12:20 PM)
Minimum temperature yesterday: 34 °F (at 8:20 PM)
Average temperature yesterday: 39 °F

Past Weeks' High & Low Weather Summary

 TemperatureHumidityPressure
High54 °F (Dec 18, 3:20 PM)100% (Dec 13, 10:20 PM)30.36 "Hg (Dec 13, 10:20 PM)
Low27 °F (Dec 26, 7:20 AM)66% (Dec 25, 3:20 PM)29.33 "Hg (Dec 12, 1:20 PM)
Average43 °F88%29.87 "Hg
* Reported Dec 11 8:20 PM — Dec 26 8:20 PM, Peine, Weather by CustomWeather, © 2014

Note: Actual official high and low records may vary slightly from our data, if they occured in-between our weather recording intervals... More about our weather records

Advertising

Peine weather history for previous 24 hours

 ConditionsComfort  
Time TempWeatherWind HumidityBarometerVisibility
8:20 PM
Dec 26
28 °FChilly.No wind100%30.24 "Hg1 mi
7:20 PM28 °FChilly.No wind100%30.27 "Hg0 mi
6:20 PM28 °FChilly.No wind100%30.27 "Hg3 mi
5:20 PM28 °FChilly.No wind100%30.30 "Hg4 mi
4:20 PM32 °FChilly.1 mph87%30.30 "HgN/A
3:20 PM34 °FChilly.3 mph81%30.33 "HgN/A
2:20 PM34 °FChilly.2 mph81%30.33 "HgN/A
1:20 PM34 °FChilly.1 mph81%30.33 "HgN/A
12:20 PM32 °FChilly.2 mph87%30.36 "HgN/A
11:20 AM30 °FChilly.1 mph93%30.36 "HgN/A
10:20 AM30 °FChilly.3 mph93%30.36 "HgN/A
9:20 AM28 °FChilly.No wind100%30.36 "Hg6 mi
8:20 AM28 °FChilly.No wind93%30.36 "HgN/A
7:20 AM27 °FChilly.1 mph100%30.33 "Hg6 mi
6:20 AM30 °FChilly.2 mph93%30.33 "HgN/A
5:20 AM30 °FChilly.2 mph93%30.33 "HgN/A
4:20 AM30 °FChilly.1 mph93%30.33 "HgN/A
3:20 AM32 °FChilly.2 mph93%30.30 "HgN/A
2:20 AM32 °FChilly.2 mph100%30.30 "HgN/A
1:20 AM34 °FChilly.3 mph93%30.30 "HgN/A
12:20 AM34 °FChilly.5 mph93%30.27 "HgN/A
11:20 PM
Dec 25
34 °FChilly.3 mph93%30.27 "HgN/A
10:20 PM34 °FChilly.3 mph100%30.24 "HgN/A
9:20 PM34 °FChilly.6 mph100%30.24 "HgN/A
Weather by CustomWeather, © 2014

See weather overviewHow to use our weather pages